Location: Dealu Mare
(46.0500°N, 22.8167°E)
Time: 22:01:48
(UTC+00:00)

USA 32 - Pass Details

Date: 15 January 2026
Orbit: 774 x 780 km, 85.0° (Epoch: 10 February)

Event Time Altitude Azimuth Distance (km) Brightness Sun altitude
Rises 04:26:51 0° 181° (S) 3,250 7.4 -16.9°
Reaches altitude 10° 04:29:11 10° 181° (S) 2,327 6.7 -16.5°
Maximum altitude 04:34:25 83° 93° (E) 792 4.1 -15.7°
Drops below altitude 10° 04:39:41 10° 7° (N) 2,344 6.4 -14.8°
Sets 04:42:02 0° 7° (N) 3,276 7.2 -14.4°
